Starlink 5566

operational
NORAD ID: 56133 Int'l Des: 2023-046 Owner: SPXS Country: US Constellation: starlink
LEOCIRCULAR

关于 Starlink 5566

正在加载描述...

实时位置

正在加载3D地球...

即将过境

高度历史

Altitude vs Time

uPlot chart will show altitude changes over time

两行轨道根数

1 56133U 23046AT 26072.00002314 .00050503 00000-0 26368-2 0 9990
2 56133 43.0004 127.1996 0001329 294.1139 260.3411 15.15176602 5736
Epoch: Mar 13, 2026 • Age: 29 hours

当前状态

高度 521.8 km
速度 7.61 km/s
星下点 34.34°N, 86.43°W
发射日期 Mar 29, 2023
运行时间 2.9 years
类型 internet

技术详情

分类 Payload
质量 305.00 kg
干质量 290.00 kg
总质量 305.00 kg
长度 0.20 m
直径 2.80 m
跨度 9.00 m
形状 Box + pan
制造商 SPXS
平台类型 Starlink
阶段状态 In Orbit
所有者/国家 SPXS/US

大型星座

Loading constellations...